Location: Tofino
(49.1330°N, 125.9000°W)
Time: 23:33:33
(UTC-08:00)

Amateur Radio Satellites - All Passes

Search period start: 10 December 2017 23:03
Search period end: 11 December 2017 23:03
Location: Tofino, 49.1330°N, 125.9000°W

Satellite Date Start Highest point End Downlink Frequencies (MHz)
Time Altitude Azimuth
BEESAT 3 10 Dec 23:07:11 23:10:47 31° 321° (NW) 23:14:23 437.485
LO-87 10 Dec 23:11:52 23:15:14 40° 262° (W) 23:18:37 145.935 - 145.965
VELOX 1 10 Dec 23:13:17 23:16:57 26° 63° (ENE) 23:20:39 145.980
EO-79 10 Dec 23:15:05 23:17:03 13° 88° (E) 23:19:01 145.935-145.965
TIGRISAT 10 Dec 23:17:01 23:20:52 34° 293° (WNW) 23:24:48 435.000
UNISAT 6 10 Dec 23:19:10 23:22:56 30° 294° (WNW) 23:26:43 437.425
RS-15 10 Dec 23:26:55 23:38:57 70° 43° (NE) 23:50:17 29.354- 29.394
POLYITAN 1 10 Dec 23:35:52 23:39:05 21° 92° (E) 23:42:17 437.675
BEESAT 2 10 Dec 23:36:03 23:39:57 46° 316° (NW) 23:43:54 435.950
PRISM 10 Dec 23:41:47 23:45:48 50° 290° (WNW) 23:49:45 437.425
AIST 2D 10 Dec 23:54:21 23:57:55 80° 283° (WNW) 00:01:27 435.315
QB50P2 11 Dec 00:00:40 00:04:40 40° 98° (E) 00:08:38 145.880/145.840
DUCHIFAT 1 11 Dec 00:12:55 00:16:48 37° 97° (E) 00:20:42 145.980
50 SAT 11 Dec 00:13:48 00:16:02 18° 65° (ENE) 00:18:17 437.505
SO-50 11 Dec 00:15:00 00:19:27 43° 42° (NE) 00:23:56 436.795
UKube-1 11 Dec 00:16:53 00:19:51 18° 60° (ENE) 00:22:50 .
AO-85 11 Dec 00:21:43 00:25:37 55° 314° (NW) 00:29:48 145.980
DX 1 11 Dec 00:22:25 00:26:13 30° 65° (ENE) 00:30:03 434.975-435.025
SPROUT 11 Dec 00:26:45 00:30:48 42° 262° (W) 00:34:52 437.525
ESTCUBE 1 11 Dec 00:36:22 00:38:01 12° 274° (W) 00:39:41 437.505/2401.250
NANOSAT C BR1 11 Dec 00:36:40 00:40:52 76° 102° (ESE) 00:45:05 145.865
PCSat 11 Dec 00:46:35 00:48:24 12° 2° (N) 00:50:15 145.827
BEESAT 3 11 Dec 00:48:24 00:49:31 11° 343° (NNW) 00:50:36 437.485
VELOX 1 11 Dec 00:48:59 00:53:13 41° 262° (W) 00:57:28 145.980
EO-79 11 Dec 00:49:06 00:53:18 73° 287° (WNW) 00:57:30 145.935-145.965
BUGSAT 1 11 Dec 01:10:24 01:14:10 37° 98° (E) 01:17:56 437.445
POLYITAN 1 11 Dec 01:11:03 01:15:04 44° 291° (WNW) 01:19:05 437.675
BEESAT 2 11 Dec 01:16:35 01:18:39 13° 337° (NNW) 01:20:44 435.950
Oscar 19 11 Dec 01:28:23 01:33:10 36° 96° (E) 01:37:56 437.125/150
Gurwin Techsat 1B 11 Dec 01:36:37 01:41:22 32° 95° (E) 01:46:04 435.225
QB50P2 11 Dec 01:36:52 01:40:15 24° 296° (WNW) 01:43:38 145.880/145.840
RS-15 11 Dec 01:40:01 01:50:52 45° 250° (WSW) 02:01:12 29.354- 29.394
50 SAT 11 Dec 01:44:56 01:47:49 30° 262° (W) 01:50:42 437.505
DUCHIFAT 1 11 Dec 01:48:53 01:52:19 25° 296° (WNW) 01:55:45 145.980
UKube-1 11 Dec 01:51:11 01:55:27 60° 258° (WSW) 01:59:46 .
BEESAT 11 Dec 01:51:53 01:55:52 27° 63° (ENE) 01:59:52 436.000
SO-50 11 Dec 01:55:38 01:59:51 34° 241° (WSW) 02:04:06 436.795
AO-7 11 Dec 01:55:41 01:57:11 11° 80° (E) 01:58:42 .
DX 1 11 Dec 01:58:21 02:02:20 34° 263° (W) 02:06:21 434.975-435.025
AO-85 11 Dec 02:04:26 02:07:00 16° 338° (NNW) 02:09:39 145.980
MOZHAYETS 4 11 Dec 02:07:21 02:11:41 45° 69° (ENE) 02:16:03
NANOSAT C BR1 11 Dec 02:13:47 02:16:03 14° 301° (WNW) 02:18:18 145.865
AO-91 11 Dec 02:14:11 02:17:53 87° 287° (WNW) 02:21:19 145.960
ITUPSAT 1 11 Dec 02:16:42 02:21:11 43° 67° (ENE) 02:25:40 437.325
EO-79 11 Dec 02:27:45 02:28:17 10° 305° (NW) 02:28:50 145.935-145.965
YUBILEINY 11 Dec 02:28:10 02:35:15 28° 79° (E) 02:42:23 435.215
PCSat 11 Dec 02:30:06 02:34:03 20° 29° (NNE) 02:37:59 145.827
M-CUBED/EXP-1 PRIME 11 Dec 02:46:06 02:47:49 12° 91° (E) 02:49:30 437.505
BUGSAT 1 11 Dec 02:46:08 02:49:21 23° 296° (WNW) 02:52:35 437.445
Oscar 19 11 Dec 03:07:45 03:12:30 37° 295° (WNW) 03:17:15 437.125/150
Gurwin Techsat 1B 11 Dec 03:16:25 03:21:26 43° 294° (WNW) 03:26:25 435.225
CUBESAT XI-V 11 Dec 03:19:20 03:23:54 59° 71° (ENE) 03:28:32 437.345
BEESAT 11 Dec 03:28:56 03:33:27 43° 261° (W) 03:38:01 436.000
AO-7 11 Dec 03:43:50 03:52:00 53° 102° (ESE) 04:00:08 .
MOZHAYETS 4 11 Dec 03:45:25 03:49:03 23° 268° (W) 03:52:43
STARS 11 Dec 03:47:40 03:49:47 13° 56° (NE) 03:51:54 437.465
AO-85 11 Dec 03:48:14 03:49:16 11° 3° (N) 03:50:18 145.980
ITUPSAT 1 11 Dec 03:55:09 03:59:09 27° 266° (W) 04:03:12 437.325
BEESAT 3 11 Dec 04:05:04 04:07:57 19° 31° (NNE) 04:10:48 437.485
ITAMSAT 1 11 Dec 04:10:29 04:15:39 61° 102° (ESE) 04:20:44 435.822/435.867
PCSat 11 Dec 04:13:03 04:18:29 66° 52° (NE) 04:23:53 145.827
M-CUBED/EXP-1 PRIME 11 Dec 04:18:13 04:22:53 86° 110° (ESE) 04:27:20 437.505
YUBILEINY 11 Dec 04:22:24 04:31:13 76° 282° (WNW) 04:40:08 435.215
KKS-1 11 Dec 04:26:29 04:30:54 62° 72° (ENE) 04:35:20 437.445
BEESAT 2 11 Dec 04:35:08 04:37:35 15° 26° (NNE) 04:40:01 435.950
CUBESAT XI-V 11 Dec 04:58:22 05:01:39 19° 270° (W) 05:04:59 437.345
XW-2B 11 Dec 05:18:02 05:18:48 10° 87° (E) 05:19:33 145.730 - 145.750
DOVE 4 11 Dec 05:18:54 05:23:34 61° 100° (E) 05:27:56 437.250
STRAND 1 11 Dec 05:21:00 05:24:19 18° 56° (NE) 05:27:38 437.568
STARS 11 Dec 05:21:03 05:25:28 90° 49° (NE) 05:29:54 437.465
AO-85 11 Dec 05:28:11 05:31:26 19° 28° (NNE) 05:34:51 145.980
XW-2F 11 Dec 05:32:30 05:34:41 15° 90° (E) 05:36:51 145.980 - 146.000
FO-29 11 Dec 05:36:46 05:41:30 18° 46° (NE) 05:46:13 435.910
AO-7 11 Dec 05:36:52 05:44:41 46° 303° (WNW) 05:52:31 .
BEESAT 3 11 Dec 05:42:03 05:46:02 89° 232° (SW) 05:49:56 437.485
XW-2C 11 Dec 05:43:19 05:46:15 20° 92° (E) 05:49:09 145.795 - 145.815
ITAMSAT 1 11 Dec 05:50:40 05:54:43 24° 301° (WNW) 05:58:45 435.822/435.867
M-CUBED/EXP-1 PRIME 11 Dec 05:53:41 05:56:36 17° 309° (NW) 05:59:27 437.505
PCSat 11 Dec 05:57:11 06:01:26 24° 251° (WSW) 06:05:40 145.827
KKS-1 11 Dec 06:04:58 06:07:52 17° 270° (W) 06:10:46 437.445
BEESAT 2 11 Dec 06:12:06 06:16:08 59° 48° (NE) 06:20:05 435.950
LilacSat-2 11 Dec 06:14:03 06:17:49 46° 99° (E) 06:21:33 437.200
CUTE 1.7 + AOD 2 11 Dec 06:22:07 06:24:48 16° 89° (E) 06:27:28 437.475
YUBILEINY 11 Dec 06:23:27 06:29:46 21° 307° (NW) 06:36:08 435.215
CUBEBUG 2 11 Dec 06:29:51 06:31:13 11° 87° (E) 06:32:35 437.445
XW-2D 11 Dec 06:33:52 06:37:44 74° 103° (ESE) 06:41:34 145.860 - 145.880
HO-68 11 Dec 06:35:13 06:41:20 29° 93° (E) 06:47:24 435.675
CUTE-I 11 Dec 06:47:04 06:52:25 66° 103° (ESE) 06:57:42 437.470
XW-2B 11 Dec 06:49:37 06:53:29 78° 285° (WNW) 06:57:19 145.730 - 145.750
KAITUO 1B 11 Dec 06:52:31 06:56:22 85° 105° (ESE) 07:00:10 145.475/437.950
NUDT-PHONESAT 11 Dec 06:55:58 06:59:44 88° 104° (ESE) 07:03:30 437.300
DOVE 4 11 Dec 06:57:27 07:00:46 19° 301° (WNW) 07:03:58 437.250
STRAND 1 11 Dec 06:57:44 07:02:52 84° 255° (WSW) 07:08:02 437.568
STARS 11 Dec 07:01:07 07:02:27 11° 273° (W) 07:03:47 437.465
XW-2F 11 Dec 07:05:21 07:09:07 54° 287° (WNW) 07:12:52 145.980 - 146.000
AO-85 11 Dec 07:08:00 07:12:38 66° 48° (NE) 07:17:38 145.980
XW-2C 11 Dec 07:16:57 07:20:34 38° 290° (WNW) 07:24:09 145.795 - 145.815
FO-29 11 Dec 07:17:29 07:25:01 59° 67° (ENE) 07:32:41 435.910
BEESAT 3 11 Dec 07:21:42 07:22:54 11° 250° (WSW) 07:24:03 437.485
AO-7 11 Dec 07:31:04 07:35:26 16° 327° (NNW) 07:39:50 .
Oscar 11 11 Dec 07:38:36 07:39:59 11° 86° (E) 07:41:22 .
SEEDS 11 Dec 07:41:29 07:45:44 61° 101° (E) 07:49:56 437.485
AO-73 11 Dec 07:46:52 07:50:05 20° 92° (E) 07:53:21 145.935
LilacSat-2 11 Dec 07:49:02 07:51:46 19° 297° (WNW) 07:54:31 437.200
BEESAT 2 11 Dec 07:50:37 07:53:27 19° 246° (WSW) 07:56:15 435.950
CUTE 1.7 + AOD 2 11 Dec 07:56:46 08:01:02 61° 287° (WNW) 08:05:15 437.475
CUBEBUG 2 11 Dec 08:04:11 08:08:24 83° 286° (WNW) 08:12:42 437.445
XW-2D 11 Dec 08:09:37 08:11:21 13° 301° (WNW) 08:13:05 145.860 - 145.880
UWE-3 11 Dec 08:12:01 08:16:16 70° 102° (ESE) 08:20:36 435.000/436.395/437.385
NO-84 11 Dec 08:12:24 08:15:07 27° 136° (SE) 08:18:00 435.350 FM
AAUSAT CUBESAT 2 11 Dec 08:12:28 08:16:37 58° 100° (E) 08:20:42 437.432
HO-68 11 Dec 08:22:29 08:29:36 66° 293° (WNW) 08:36:39 435.675
CUTE-I 11 Dec 08:27:55 08:32:00 23° 302° (WNW) 08:36:04 437.470
KAITUO 1B 11 Dec 08:28:35 08:29:43 11° 302° (WNW) 08:30:51 145.475/437.950
XW-2A 11 Dec 08:31:19 08:34:44 78° 284° (WNW) 08:38:09 145.665 - 145.685
NUDT-PHONESAT 11 Dec 08:32:10 08:32:57 11° 302° (WNW) 08:33:44 437.300
STRAND 1 11 Dec 08:40:37 08:42:50 13° 274° (W) 08:45:04 437.568
TIGRISAT 11 Dec 08:42:48 08:46:49 40° 69° (ENE) 08:50:49 435.000
O/OREOS (USA 219) 11 Dec 08:44:16 08:47:51 23° 103° (ESE) 08:51:25 437.305
UNISAT 6 11 Dec 08:44:52 08:49:00 46° 70° (ENE) 08:53:06 437.425
ZACube-1 11 Dec 08:45:51 08:50:10 85° 102° (ESE) 08:54:33 437.345
AO-85 11 Dec 08:49:02 08:52:45 23° 245° (WSW) 08:56:39 145.980
PRISM 11 Dec 09:00:05 09:03:24 23° 63° (ENE) 09:06:43 437.425
FO-29 11 Dec 09:03:13 09:10:17 38° 267° (W) 09:17:32 435.910
Oscar 11 11 Dec 09:12:22 09:16:45 88° 284° (WNW) 09:21:07 .
Max Valier Satellite 11 Dec 09:15:16 09:17:29 15° 90° (E) 09:19:42 145.860
SEEDS 11 Dec 09:18:10 09:20:58 17° 299° (WNW) 09:23:47 437.485
AO-73 11 Dec 09:22:25 09:26:33 48° 289° (WNW) 09:30:45 145.935
CUBEBUG 2 11 Dec 09:43:03 09:44:21 11° 303° (WNW) 09:45:40 437.445
AAUSAT CUBESAT 2 11 Dec 09:48:51 09:51:39 18° 299° (WNW) 09:54:26 437.432
NO-84 11 Dec 09:48:55 09:52:08 57° 337° (NNW) 09:55:40 435.350 FM
UWE-3 11 Dec 09:49:45 09:52:15 15° 300° (WNW) 09:54:47 435.000/436.395/437.385
DELFI C3 11 Dec 09:50:24 09:54:17 51° 99° (E) 09:58:08 145.870
EO-88 11 Dec 09:51:41 09:54:49 25° 95° (E) 09:57:55 145.990 - 145.960
NANOSAT C BR1 11 Dec 09:59:29 10:01:17 13° 57° (ENE) 10:03:05 145.865
EO-79 11 Dec 10:11:00 10:13:48 18° 61° (ENE) 10:16:37 145.935-145.965
HO-68 11 Dec 10:11:34 10:16:05 18° 315° (NW) 10:20:35 435.675
TIGRISAT 11 Dec 10:20:12 10:23:40 23° 267° (W) 10:27:07 435.000
O/OREOS (USA 219) 11 Dec 10:22:29 10:26:56 50° 302° (WNW) 10:31:25 437.305
UNISAT 6 11 Dec 10:22:41 10:25:57 21° 268° (W) 10:29:11 437.425
ZACube-1 11 Dec 10:23:46 10:25:52 14° 302° (WNW) 10:27:59 437.345
AIST 2D 11 Dec 10:31:48 10:35:16 66° 75° (ENE) 10:38:47 435.315
POLYITAN 1 11 Dec 10:32:03 10:35:34 27° 65° (ENE) 10:39:06 437.675
PRISM 11 Dec 10:34:31 10:38:27 41° 261° (W) 10:42:25 437.425
LO-87 11 Dec 10:35:58 10:37:08 11° 89° (E) 10:38:18 145.935 - 145.965
ESTCUBE 1 11 Dec 10:45:37 10:48:08 15° 88° (E) 10:50:38 437.505/2401.250
Max Valier Satellite 11 Dec 10:47:58 10:51:35 49° 288° (WNW) 10:55:11 145.860
Oscar 11 11 Dec 10:50:18 10:52:13 13° 303° (WNW) 10:54:08 .
QB50P2 11 Dec 10:56:45 11:00:48 50° 71° (ENE) 11:04:54 145.880/145.840
DUCHIFAT 1 11 Dec 11:08:08 11:12:08 46° 70° (ENE) 11:16:08 145.980
AO-7 11 Dec 11:11:50 11:13:27 11° 23° (NNE) 11:15:02 .
Oscar 19 11 Dec 11:13:05 11:15:46 14° 53° (NE) 11:18:27 437.125/150
Gurwin Techsat 1B 11 Dec 11:25:04 11:27:49 14° 52° (NE) 11:30:34 435.225
EO-88 11 Dec 11:25:15 11:28:25 28° 293° (WNW) 11:31:34 145.990 - 145.960
DELFI C3 11 Dec 11:26:00 11:28:40 18° 298° (WNW) 11:31:18 145.870
NO-84 11 Dec 11:26:45 11:29:54 31° 358° (N) 11:33:17 435.350 FM
NANOSAT C BR1 11 Dec 11:32:10 11:36:21 88° 263° (W) 11:40:34 145.865
AO-91 11 Dec 11:39:19 11:42:38 19° 62° (ENE) 11:45:46 145.960
EO-79 11 Dec 11:45:02 11:49:10 58° 259° (W) 11:53:20 145.935-145.965
BUGSAT 1 11 Dec 12:03:36 12:07:28 45° 70° (ENE) 12:11:20 437.445
O/OREOS (USA 219) 11 Dec 12:06:21 12:07:30 11° 324° (NW) 12:08:39 437.305
POLYITAN 1 11 Dec 12:07:24 12:11:14 35° 263° (W) 12:15:06 437.675
LO-87 11 Dec 12:07:25 12:10:55 60° 286° (WNW) 12:14:24 145.935 - 145.965
SPROUT 11 Dec 12:08:13 12:11:39 23° 93° (E) 12:15:04 437.525
AIST 2D 11 Dec 12:08:22 12:08:52 10° 272° (W) 12:09:22 435.315
ESTCUBE 1 11 Dec 12:20:54 12:25:28 74° 286° (WNW) 12:30:00 437.505/2401.250
YUBILEINY 11 Dec 12:31:40 12:37:36 19° 51° (NE) 12:43:29 435.215
QB50P2 11 Dec 12:33:57 12:36:53 18° 269° (W) 12:39:50 145.880/145.840
VELOX 1 11 Dec 12:34:45 12:38:32 27° 94° (E) 12:42:16 145.980
DUCHIFAT 1 11 Dec 12:44:59 12:48:02 20° 268° (W) 12:51:05 145.980
Oscar 19 11 Dec 12:49:08 12:54:15 77° 73° (ENE) 12:59:27 437.125/150
AO-7 11 Dec 12:56:41 13:03:30 30° 48° (NE) 13:10:20 .
Gurwin Techsat 1B 11 Dec 13:01:35 13:06:53 74° 72° (ENE) 13:12:13 435.225
NO-84 11 Dec 13:04:12 13:07:44 46° 19° (NNE) 13:11:33 435.350 FM
nSIGHT-1 11 Dec 13:10:25 13:13:09 25° 144° (SE) 13:15:53 .
AO-91 11 Dec 13:13:45 13:18:44 68° 258° (WSW) 13:23:16 145.960
M-CUBED/EXP-1 PRIME 11 Dec 13:33:25 13:37:08 28° 57° (ENE) 13:41:01 437.505
UKube-1 11 Dec 13:34:52 13:37:38 16° 91° (E) 13:40:23 .
ISS 11 Dec 13:38:45 13:41:46 34° 147° (SSE) 13:44:47 437.550
BUGSAT 1 11 Dec 13:40:07 13:43:03 19° 268° (W) 13:45:58 437.445
DX 1 11 Dec 13:42:01 13:45:52 29° 96° (E) 13:49:40 434.975-435.025
SPROUT 11 Dec 13:43:42 13:47:40 40° 291° (WNW) 13:51:38 437.525
ITAMSAT 1 11 Dec 13:54:36 13:58:43 24° 59° (ENE) 14:02:51 435.822/435.867
RS-15 11 Dec 13:57:41 14:06:53 26° 100° (E) 14:15:58 29.354- 29.394
ESTCUBE 1 11 Dec 13:59:52 14:01:28 12° 306° (NW) 14:03:04 437.505/2401.250
VELOX 1 11 Dec 14:10:58 14:15:03 37° 293° (WNW) 14:19:06 145.980
YUBILEINY 11 Dec 14:27:30 14:36:22 69° 76° (ENE) 14:45:08 435.215
50 SAT 11 Dec 14:28:35 14:31:45 72° 285° (WNW) 14:34:53 437.505
Oscar 19 11 Dec 14:30:57 14:34:12 17° 272° (W) 14:37:27 437.125/150
NO-84 11 Dec 14:41:23 14:45:06 51° 217° (SW) 14:49:03 435.350 FM
Gurwin Techsat 1B 11 Dec 14:43:48 14:47:24 18° 271° (W) 14:51:03 435.225
nSIGHT-1 11 Dec 14:45:54 14:49:08 80° 341° (NNW) 14:52:23 .
AO-7 11 Dec 14:47:06 14:55:26 86° 251° (WSW) 15:03:50 .
DOVE 4 11 Dec 14:51:57 14:55:17 17° 58° (ENE) 14:58:34 437.250
M-CUBED/EXP-1 PRIME 11 Dec 15:07:14 15:11:18 42° 257° (WSW) 15:15:37 437.505
UKube-1 11 Dec 15:09:46 15:14:02 60° 289° (WNW) 15:18:17 .
CUBESAT XI-V 11 Dec 15:13:55 15:15:18 11° 85° (E) 15:16:41 437.345
ISS 11 Dec 15:14:50 15:18:07 70° 345° (NNW) 15:21:25 437.550
DX 1 11 Dec 15:18:07 15:22:03 33° 294° (WNW) 15:25:57 434.975-435.025
BEESAT 11 Dec 15:24:34 15:28:54 34° 96° (E) 15:33:13 436.000
ITAMSAT 1 11 Dec 15:32:39 15:37:49 60° 258° (WSW) 15:43:00 435.822/435.867
MOZHAYETS 4 11 Dec 15:34:45 15:39:21 61° 101° (E) 15:43:55
ITUPSAT 1 11 Dec 15:50:14 15:54:58 56° 101° (ESE) 15:59:38 437.325
XW-2B 11 Dec 16:03:41 16:04:26 10° 57° (ENE) 16:05:09 145.730 - 145.750
RS-15 11 Dec 16:05:13 16:17:32 80° 124° (SE) 16:29:43 29.354- 29.394
SO-50 11 Dec 16:13:38 16:17:25 28° 117° (ESE) 16:21:17 436.795
XW-2F 11 Dec 16:17:34 16:19:31 14° 60° (ENE) 16:21:29 145.980 - 146.000
nSIGHT-1 11 Dec 16:22:23 16:25:33 52° 2° (N) 16:28:43 .
YUBILEINY 11 Dec 16:25:05 16:32:30 32° 279° (W) 16:39:52 435.215
DOVE 4 11 Dec 16:27:01 16:32:19 88° 256° (WSW) 16:37:31 437.250
XW-2C 11 Dec 16:28:38 16:31:18 19° 63° (ENE) 16:34:01 145.795 - 145.815
CUTE-I 11 Dec 16:34:17 16:38:44 27° 61° (ENE) 16:43:12 437.470
AO-7 11 Dec 16:43:23 16:49:23 21° 271° (W) 16:55:27 .
CUBESAT XI-V 11 Dec 16:48:40 16:53:26 83° 103° (ESE) 16:58:09 437.345
ISS 11 Dec 16:51:35 16:54:50 55° 6° (N) 16:58:05 437.550
LilacSat-2 11 Dec 16:59:30 17:03:05 40° 70° (ENE) 17:06:42 437.200
BEESAT 11 Dec 17:02:22 17:06:40 34° 295° (WNW) 17:10:57 436.000
STARS 11 Dec 17:08:07 17:09:46 12° 88° (E) 17:11:26 437.465
HO-68 11 Dec 17:08:16 17:14:36 35° 57° (ENE) 17:20:58 435.675
O/OREOS (USA 219) 11 Dec 17:10:42 17:13:30 16° 42° (NE) 17:16:17 437.305
MOZHAYETS 4 11 Dec 17:12:47 17:16:05 20° 300° (WNW) 17:19:24
XW-2D 11 Dec 17:18:27 17:22:12 62° 73° (ENE) 17:25:58 145.860 - 145.880
CUTE 1.7 + AOD 2 11 Dec 17:18:31 17:21:37 20° 62° (ENE) 17:24:42 437.475
ITUPSAT 1 11 Dec 17:28:46 17:32:26 22° 300° (WNW) 17:36:05 437.325
CUBEBUG 2 11 Dec 17:31:22 17:34:02 17° 61° (ENE) 17:36:40 437.445
XW-2B 11 Dec 17:34:09 17:37:56 89° 112° (ESE) 17:41:47 145.730 - 145.750
KAITUO 1B 11 Dec 17:35:44 17:39:26 69° 75° (ENE) 17:43:12 145.475/437.950
NUDT-PHONESAT 11 Dec 17:38:14 17:41:54 70° 74° (ENE) 17:45:37 437.300
UWE-3 11 Dec 17:39:32 17:41:06 12° 57° (ENE) 17:42:40 435.000/436.395/437.385
XW-2F 11 Dec 17:49:25 17:53:09 64° 259° (W) 17:56:56 145.980 - 146.000
KKS-1 11 Dec 17:49:31 17:53:59 70° 103° (ESE) 17:58:23 437.445
SO-50 11 Dec 17:53:20 17:57:41 49° 317° (NW) 18:02:07 436.795
nSIGHT-1 11 Dec 17:58:40 18:01:54 80° 205° (SSW) 18:05:07 .
XW-2C 11 Dec 18:01:34 18:05:12 43° 262° (W) 18:08:51 145.795 - 145.815
DOVE 4 11 Dec 18:07:53 18:10:39 14° 274° (W) 18:13:24 437.250
ZACube-1 11 Dec 18:11:43 18:13:48 14° 58° (ENE) 18:15:54 437.345
CUTE-I 11 Dec 18:13:14 18:18:30 54° 260° (W) 18:23:47 437.470
RS-15 11 Dec 18:19:21 18:31:13 49° 332° (NNW) 18:42:47 29.354- 29.394
CUBESAT XI-V 11 Dec 18:27:21 18:30:11 16° 303° (WNW) 18:32:59 437.345
ISS 11 Dec 18:28:08 18:31:24 64° 206° (SSW) 18:34:39 437.550
LilacSat-2 11 Dec 18:34:45 18:37:32 19° 268° (W) 18:40:20 437.200
SEEDS 11 Dec 18:36:31 18:40:43 69° 74° (ENE) 18:44:58 437.485
Oscar 11 11 Dec 18:36:47 18:39:23 16° 59° (ENE) 18:41:59 .
STARS 11 Dec 18:42:19 18:46:43 84° 286° (WNW) 18:51:04 437.465
AO-73 11 Dec 18:46:16 18:49:38 25° 65° (ENE) 18:53:01 145.935
O/OREOS (USA 219) 11 Dec 18:49:05 18:53:38 87° 62° (ENE) 18:58:08 437.305
CUTE 1.7 + AOD 2 11 Dec 18:52:57 18:57:05 52° 261° (W) 19:01:17 437.475
HO-68 11 Dec 18:54:56 19:02:02 60° 258° (WSW) 19:09:10 435.675
XW-2D 11 Dec 18:55:06 18:56:47 13° 272° (W) 18:58:28 145.860 - 145.880
PCSat 11 Dec 18:59:42 19:04:00 25° 109° (ESE) 19:08:19 145.827
STRAND 1 11 Dec 19:04:31 19:08:40 24° 93° (E) 19:12:47 437.568
XW-2A 11 Dec 19:05:41 19:08:59 63° 74° (ENE) 19:12:20 145.665 - 145.685
AAUSAT CUBESAT 2 11 Dec 19:05:52 19:09:59 63° 73° (ENE) 19:14:09 437.432
CUBEBUG 2 11 Dec 19:06:03 19:10:15 61° 259° (W) 19:14:23 437.445
KAITUO 1B 11 Dec 19:12:42 19:13:53 11° 272° (W) 19:15:03 145.475/437.950
UWE-3 11 Dec 19:12:45 19:16:55 90° 229° (SW) 19:21:05 435.000/436.395/437.385
NUDT-PHONESAT 11 Dec 19:15:17 19:16:13 11° 272° (W) 19:17:09 437.300
KKS-1 11 Dec 19:27:12 19:30:02 17° 302° (WNW) 19:32:51 437.445
nSIGHT-1 11 Dec 19:35:28 19:37:44 18° 220° (SW) 19:39:58 .
SO-50 11 Dec 19:36:22 19:39:12 16° 339° (NNW) 19:42:04 436.795
ZACube-1 11 Dec 19:45:24 19:49:31 77° 256° (WSW) 19:53:42 437.345
Max Valier Satellite 11 Dec 19:58:30 20:00:18 13° 61° (ENE) 20:02:08 145.860
ISS 11 Dec 20:05:38 20:07:23 14° 223° (SW) 20:09:08 437.550
FO-29 11 Dec 20:08:44 20:15:16 36° 91° (E) 20:21:07 435.910
Oscar 11 11 Dec 20:10:43 20:15:00 71° 257° (WSW) 20:19:21 .
SEEDS 11 Dec 20:14:39 20:16:52 14° 272° (W) 20:19:07 437.485
STARS 11 Dec 20:20:33 20:22:20 12° 305° (NW) 20:24:09 437.465
AO-73 11 Dec 20:21:54 20:25:44 36° 263° (W) 20:29:35 145.935
O/OREOS (USA 219) 11 Dec 20:30:33 20:32:18 12° 263° (W) 20:34:04 437.305
EO-88 11 Dec 20:33:10 20:35:59 21° 65° (ENE) 20:38:48 145.990 - 145.960
RS-15 11 Dec 20:36:03 20:47:12 38° 5° (N) 20:57:55 29.354- 29.394
DELFI C3 11 Dec 20:38:57 20:42:49 50° 72° (ENE) 20:46:42 145.870
PCSat 11 Dec 20:41:35 20:46:58 64° 309° (NW) 20:52:24 145.827
STRAND 1 11 Dec 20:43:11 20:48:08 52° 292° (WNW) 20:53:04 437.568
AAUSAT CUBESAT 2 11 Dec 20:43:28 20:45:51 15° 271° (W) 20:48:16 437.432
HO-68 11 Dec 20:48:55 20:51:17 12° 278° (W) 20:53:40 435.675
BEESAT 3 11 Dec 21:11:53 21:15:36 39° 121° (ESE) 21:19:21 437.485
SO-50 11 Dec 21:19:49 21:21:32 12° 4° (N) 21:23:17 436.795
Max Valier Satellite 11 Dec 21:30:02 21:33:39 62° 259° (W) 21:37:19 145.860
BEESAT 2 11 Dec 21:44:18 21:47:40 26° 117° (ESE) 21:51:03 435.950
ESTCUBE 1 11 Dec 21:48:34 21:52:05 23° 62° (ENE) 21:55:36 437.505/2401.250
FO-29 11 Dec 21:53:33 22:00:38 53° 294° (WNW) 22:06:54 435.910
TIGRISAT 11 Dec 22:06:01 22:10:13 50° 100° (E) 22:14:28 435.000
EO-88 11 Dec 22:06:06 22:09:26 33° 263° (W) 22:12:48 145.990 - 145.960
UNISAT 6 11 Dec 22:08:22 22:12:38 58° 101° (E) 22:16:57 437.425
PRISM 11 Dec 22:11:56 22:14:59 20° 92° (E) 22:18:00 437.425
DELFI C3 11 Dec 22:15:12 22:17:50 17° 270° (W) 22:20:29 145.870
PCSat 11 Dec 22:27:33 22:31:26 19° 332° (NNW) 22:35:20 145.827
LO-87 11 Dec 22:46:35 22:50:08 84° 253° (WSW) 22:53:42 145.935 - 145.965
BEESAT 3 11 Dec 22:49:36 22:53:12 31° 320° (NW) 22:56:50 437.485
